Date String (YYYY-MM-DD hh:mm:ss) UTC,Instrument flags,Ambient pressure (hPa),Sample flow (lpm),Bypass flow (lpm),Sample temperature (°C),Ambient temperature (°C),ASC tube jacket temperature (°C),LED temperature (°C),Box temperature (°C),Sample RH (%),Span deviation,Mass concentration (μg/m³),Mass concentration (μg/m³),Mass concentration (μg/m³)
DateTimeUTC,F1_M11,P_M11,Q1_M11,Q2_M11,T1_M11,T2_M11,T3_M11,T4_M11,T5_M11,U1_M11,ZSPAN_M11,X0_M11,X2_M11,X1_M11
2022-03-09 02:00:00,,0820.2,4.99,0.00,22.0,21.4,00.0,31.1,23.6,06.2,0000.0,0003.24,0002.69,0002.43
2022-03-09 02:01:00,,0820.1,5.00,0.00,22.0,21.3,00.0,31.1,23.7,06.3,0000.0,0003.28,0002.69,0002.43
2022-03-09 02:02:00,,0820.1,5.01,0.00,22.0,21.3,00.0,31.1,23.7,06.5,0000.0,0003.25,0002.67,0002.42
2022-03-09 02:03:00,,0820.2,4.99,0.00,22.0,21.3,00.0,31.1,23.7,06.5,0000.0,0003.24,0002.65,0002.40
2022-03-09 02:04:00,,0820.2,4.99,0.00,22.0,21.3,00.0,31.1,23.7,06.5,0000.0,0003.24,0002.65,0002.41
2022-03-09 02:05:00,,0820.2,5.01,0.00,22.0,21.3,00.0,31.1,23.7,06.5,0000.0,0003.72,0002.64,0002.40
2022-03-09 02:06:00,,0820.2,4.99,0.00,22.0,21.3,00.0,31.1,23.7,06.4,0000.0,0003.70,0002.60,0002.38
2022-03-09 02:07:00,,0820.2,4.99,0.00,21.9,21.2,00.0,31.1,23.6,06.4,0000.0,0003.75,0002.61,0002.37
2022-03-09 02:08:00,,0820.2,5.01,0.00,21.9,21.2,00.0,31.0,23.6,06.5,0000.0,0004.37,0002.61,0002.35
2022-03-09 02:09:00,,0820.2,5.01,0.00,21.9,21.2,00.0,31.0,23.6,06.4,0000.0,0004.70,0002.58,0002.34
2022-03-09 02:10:00,,0820.2,5.00,0.00,21.9,21.2,00.0,31.0,23.6,06.2,0000.0,0004.78,0002.56,0002.34
2022-03-09 02:11:00,,0820.2,5.00,0.00,21.9,21.2,00.0,31.0,23.6,06.3,0000.0,0005.05,0002.54,0002.32
2022-03-09 02:12:00,,0820.2,5.00,0.00,21.9,21.2,00.0,31.0,23.6,06.2,0000.0,0004.98,0002.51,0002.30
2022-03-09 02:13:00,,0820.2,5.01,0.00,21.9,21.2,00.0,31.0,23.6,06.3,0000.0,0004.95,0002.51,0002.30
2022-03-09 02:14:00,,0820.3,5.00,0.00,21.9,21.2,00.0,31.0,23.6,06.3,0000.0,0004.95,0002.51,0002.29
2022-03-09 02:15:00,,0820.2,5.00,0.00,21.9,21.2,00.0,31.0,23.6,06.3,0000.0,0004.98,0002.51,0002.28
2022-03-09 02:16:00,,0820.3,4.99,0.00,21.9,21.3,00.0,31.0,23.6,06.2,0000.0,0004.70,0002.52,0002.28
2022-03-09 02:17:00,,0820.3,5.01,0.00,22.0,21.9,00.0,31.0,23.9,06.2,0000.0,0004.47,0002.53,0002.28
2022-03-09 02:18:00,,0820.3,4.99,0.00,22.2,22.7,00.0,31.1,24.1,06.2,0000.0,0004.97,0002.51,0002.28
2022-03-09 02:19:00,,0820.3,5.00,0.00,22.3,22.9,00.0,31.1,24.3,06.2,0000.0,0005.26,0002.47,0002.28
2022-03-09 02:20:00,,0820.3,5.01,0.00,22.3,22.7,00.0,31.1,24.3,06.3,0000.0,0004.30,0002.48,0002.29
2022-03-09 02:21:00,,0820.3,5.01,0.00,22.3,22.5,00.0,31.2,24.3,06.2,0000.0,0004.24,0002.45,0002.28
2022-03-09 02:22:00,,0820.3,4.99,0.00,22.3,22.3,00.0,31.2,24.2,06.3,0000.0,0003.87,0002.44,0002.28
2022-03-09 02:23:00,,0820.3,5.01,0.00,22.3,22.2,00.0,31.2,24.2,06.2,0000.0,0003.85,0002.46,0002.30
2022-03-09 02:24:00,,0820.4,4.99,0.00,22.3,22.0,00.0,31.2,24.1,06.2,0000.0,0003.85,0002.47,0002.30
2022-03-09 02:25:00,,0820.3,5.00,0.00,22.2,21.9,00.0,31.2,24.0,06.2,0000.0,0003.89,0002.48,0002.30
2022-03-09 02:26:00,,0820.3,4.99,0.00,22.2,21.7,00.0,31.2,23.9,06.2,0000.0,0003.87,0002.48,0002.31
2022-03-09 02:27:00,,0820.3,5.01,0.00,22.2,21.6,00.0,31.2,23.9,06.3,0000.0,0003.81,0002.47,0002.31
2022-03-09 02:28:00,,0820.3,4.99,0.00,22.2,21.6,00.0,31.2,23.9,06.2,0000.0,0003.79,0002.44,0002.29
2022-03-09 02:29:00,,0820.4,4.99,0.00,22.2,21.6,00.0,31.2,23.9,06.3,0000.0,0003.52,0002.48,0002.30
2022-03-09 02:30:00,,0820.4,5.00,0.00,22.1,21.6,00.0,31.2,23.9,06.3,0000.0,0002.93,0002.49,0002.29
2022-03-09 02:31:00,,0820.4,5.02,0.00,22.1,21.5,00.0,31.2,23.9,06.2,0000.0,0002.99,0002.49,0002.27
2022-03-09 02:32:00,,0820.3,5.00,0.00,22.1,21.5,00.0,31.2,23.9,06.2,0000.0,0003.09,0002.50,0002.27
2022-03-09 02:33:00,,0820.3,5.00,0.00,22.2,21.5,00.0,31.2,23.9,06.2,0000.0,0003.09,0002.49,0002.26
2022-03-09 02:34:00,,0820.3,4.99,0.00,22.2,21.5,00.0,31.2,23.9,06.2,0000.0,0003.03,0002.45,0002.24
2022-03-09 02:35:00,,0820.3,5.00,0.00,22.1,21.5,00.0,31.2,23.9,06.1,0000.0,0003.05,0002.47,0002.23
2022-03-09 02:36:00,,0820.4,5.00,0.00,22.1,21.5,00.0,31.2,23.9,06.1,0000.0,0003.09,0002.49,0002.24
2022-03-09 02:37:00,,0820.3,5.01,0.00,22.1,21.4,00.0,31.2,23.9,06.2,0000.0,0003.13,0002.50,0002.24
2022-03-09 02:38:00,,0820.4,4.99,0.00,22.1,21.4,00.0,31.1,23.9,06.1,0000.0,0003.22,0002.53,0002.23
2022-03-09 02:39:00,,0820.4,4.99,0.00,22.1,21.4,00.0,31.1,23.9,06.1,0000.0,0003.21,0002.55,0002.25
2022-03-09 02:40:00,,0820.4,5.00,0.00,22.1,21.4,00.0,31.1,23.9,06.1,0000.0,0003.12,0002.52,0002.25
2022-03-09 02:41:00,,0820.4,5.01,0.00,22.1,21.4,00.0,31.1,23.9,06.1,0000.0,0003.11,0002.51,0002.24
2022-03-09 02:42:00,,0820.3,5.00,0.00,22.1,21.4,00.0,31.1,23.9,06.1,0000.0,0003.09,0002.51,0002.24
2022-03-09 02:43:00,,0820.3,4.99,0.00,22.1,21.5,00.0,31.1,23.9,06.1,0000.0,0003.19,0002.55,0002.24
2022-03-09 02:44:00,,0820.4,5.00,0.00,22.1,21.5,00.0,31.1,23.9,06.1,0000.0,0003.21,0002.56,0002.24
2022-03-09 02:45:00,,0820.3,5.01,0.00,22.1,21.5,00.0,31.1,24.0,06.1,0000.0,0003.31,0002.58,0002.26
2022-03-09 02:46:00,,0820.6,5.00,0.00,22.1,21.5,00.0,31.1,24.0,06.1,0000.0,0003.28,0002.57,0002.25
2022-03-09 02:47:00,,0820.3,4.99,0.00,22.2,21.5,00.0,31.1,24.0,06.2,0000.0,0003.24,0002.53,0002.23
2022-03-09 02:48:00,,0820.3,5.01,0.00,22.2,21.5,00.0,31.1,24.0,06.2,0000.0,0003.20,0002.51,0002.22
2022-03-09 02:49:00,,0820.3,5.01,0.00,22.2,21.5,00.0,31.1,24.0,06.2,0000.0,0003.16,0002.49,0002.23
2022-03-09 02:50:00,,0820.4,5.00,0.00,22.2,21.5,00.0,31.1,24.0,06.3,0000.0,0003.30,0002.50,0002.24
2022-03-09 02:51:00,,0820.5,5.00,0.00,22.2,21.5,00.0,31.1,24.0,06.4,0000.0,0003.65,0002.63,0002.34
2022-03-09 02:52:00,,0820.5,4.99,0.00,22.2,21.5,00.0,31.1,24.0,06.6,0000.0,0004.87,0002.89,0002.54
2022-03-09 02:53:00,,0820.5,5.00,0.00,22.2,21.5,00.0,31.1,24.0,06.7,0000.0,0006.42,0003.20,0002.82
2022-03-09 02:54:00,,0820.6,5.01,0.00,22.2,21.5,00.0,31.1,24.0,06.7,0000.0,0007.24,0003.35,0003.06
2022-03-09 02:55:00,,0820.5,5.01,0.00,22.2,21.5,00.0,31.1,24.0,06.7,0000.0,0007.60,0003.51,0003.21
2022-03-09 02:56:00,,0820.5,4.98,0.00,22.2,21.5,00.0,31.1,24.0,06.8,0000.0,0008.41,0003.66,0003.35
2022-03-09 02:57:00,,0820.5,5.01,0.00,22.2,21.5,00.0,31.1,24.0,06.9,0000.0,0009.11,0003.87,0003.51
2022-03-09 02:58:00,,0820.6,5.00,0.00,22.2,21.5,00.0,31.1,24.0,07.0,0000.0,0009.60,0004.06,0003.67
2022-03-09 02:59:00,,0820.6,4.99,0.00,22.1,21.5,00.0,31.1,23.9,07.1,0000.0,0009.91,0004.27,0003.85
